CTV437 WALL-WIII

Flight info

Callsign CTV437
Flight time 1h 49m
Altitude 32000
Route AJAMA T14 AKSOX
Aircraft A320/M-SDE3FGHIRWY/LB1

Departure

Time 2026-05-05 13:17
Airport Sultan Aji Muhammad Sulaiman Sepinggan International Airport (WALL)

Arrival

Time 2026-05-05 15:07
Airport Soekarno-Hatta International Airport (WIII)
Time Latitude Longitude Altitude Speed Heading
2026-05-05 12:45 -1.26312 116.89848 21 ft 0 kts 335°
2026-05-05 13:08 -1.26331 116.89857 22 ft 4 kts 335°
2026-05-05 13:08 -1.26356 116.89868 21 ft 4 kts 347°
2026-05-05 13:08 -1.26380 116.89868 22 ft 4 kts 33°
2026-05-05 13:09 -1.26391 116.89856 22 ft 0 kts 65°
2026-05-05 13:12 -1.26387 116.89866 24 ft 4 kts 65°
2026-05-05 13:12 -1.26377 116.89889 7 ft 3 kts 66°
2026-05-05 13:12 -1.26361 116.89926 21 ft 9 kts 67°
2026-05-05 13:12 -1.26332 116.90000 21 ft 12 kts 68°
2026-05-05 13:13 -1.26302 116.90071 21 ft 10 kts 66°
2026-05-05 13:13 -1.26275 116.90131 21 ft 9 kts 66°
2026-05-05 13:13 -1.26245 116.90205 21 ft 14 kts 68°
2026-05-05 13:13 -1.26209 116.90291 23 ft 13 kts 68°
2026-05-05 13:14 -1.26228 116.90362 21 ft 10 kts 122°
2026-05-05 13:14 -1.26263 116.90416 21 ft 8 kts 122°
2026-05-05 13:14 -1.26294 116.90454 21 ft 6 kts 139°
2026-05-05 13:14 -1.26325 116.90469 22 ft 4 kts 162°
2026-05-05 13:15 -1.26349 116.90472 22 ft 3 kts 180°
2026-05-05 13:15 -1.26374 116.90465 22 ft 7 kts 202°
2026-05-05 13:15 -1.26411 116.90446 23 ft 5 kts 216°
2026-05-05 13:15 -1.26426 116.90423 22 ft 0 kts 250°
2026-05-05 13:17 -1.26445 116.90370 22 ft 37 kts 250°
2026-05-05 13:17 -1.26662 116.89862 25 ft 119 kts 247°
2026-05-05 13:17 -1.27071 116.88901 101 ft 174 kts 247°
2026-05-05 13:17 -1.27559 116.87731 714 ft 188 kts 247°
2026-05-05 13:18 -1.28059 116.86500 1538 ft 191 kts 247°
2026-05-05 13:18 -1.28563 116.85273 2109 ft 196 kts 246°
2026-05-05 13:18 -1.29127 116.83949 2333 ft 218 kts 246°
2026-05-05 13:18 -1.29749 116.82499 2648 ft 237 kts 246°
2026-05-05 13:19 -1.30420 116.80937 3045 ft 258 kts 246°
2026-05-05 13:19 -1.31137 116.79259 3709 ft 266 kts 246°
2026-05-05 13:19 -1.31868 116.77541 4500 ft 270 kts 246°
2026-05-05 13:19 -1.32608 116.75800 5292 ft 274 kts 246°
2026-05-05 13:20 -1.33355 116.74037 6079 ft 277 kts 246°
2026-05-05 13:20 -1.34110 116.72250 6814 ft 281 kts 246°
2026-05-05 13:20 -1.34874 116.70442 7546 ft 284 kts 246°
2026-05-05 13:20 -1.35650 116.68614 8278 ft 287 kts 246°
2026-05-05 13:21 -1.36433 116.66766 9004 ft 291 kts 246°
2026-05-05 13:21 -1.37227 116.64893 9724 ft 294 kts 246°
2026-05-05 13:21 -1.38039 116.62974 10178 ft 308 kts 246°
2026-05-05 13:21 -1.38904 116.60934 10340 ft 330 kts 246°
2026-05-05 13:22 -1.39819 116.58776 10722 ft 342 kts 246°
2026-05-05 13:22 -1.40751 116.56570 11299 ft 347 kts 246°
2026-05-05 13:22 -1.41695 116.54338 11903 ft 351 kts 246°
2026-05-05 13:22 -1.42651 116.52081 12508 ft 354 kts 246°
2026-05-05 13:23 -1.43618 116.49801 12826 ft 357 kts 246°
2026-05-05 13:23 -1.44589 116.47511 12888 ft 357 kts 246°
2026-05-05 13:23 -1.45558 116.45225 12891 ft 357 kts 246°
2026-05-05 13:23 -1.46527 116.42940 12901 ft 357 kts 246°
2026-05-05 13:24 -1.47480 116.40672 13277 ft 361 kts 246°
2026-05-05 13:24 -1.48444 116.38348 13895 ft 363 kts 246°
2026-05-05 13:24 -1.49410 116.36006 14435 ft 366 kts 246°
2026-05-05 13:24 -1.50381 116.33645 14958 ft 368 kts 247°
2026-05-05 13:25 -1.51359 116.31266 15484 ft 371 kts 247°
2026-05-05 13:25 -1.52346 116.28868 16004 ft 374 kts 247°
2026-05-05 13:25 -1.53343 116.26455 16513 ft 377 kts 247°
2026-05-05 13:25 -1.54338 116.24013 16850 ft 381 kts 247°
2026-05-05 13:26 -1.55323 116.21547 16914 ft 381 kts 248°
2026-05-05 13:26 -1.56284 116.19115 16918 ft 380 kts 248°
2026-05-05 13:26 -1.57027 116.17226 16917 ft 380 kts 248°
2026-05-05 13:28 -1.57801 116.15261 16918 ft 380 kts 248°
2026-05-05 13:28 -1.58713 116.12949 16923 ft 380 kts 248°
2026-05-05 13:29 -1.59023 116.12164 16924 ft 380 kts 248°
2026-05-05 13:29 -1.59998 116.09706 16924 ft 380 kts 248°
2026-05-05 13:29 -1.60966 116.07280 16923 ft 380 kts 248°
2026-05-05 13:29 -1.61944 116.04828 16923 ft 380 kts 248°
2026-05-05 13:30 -1.62922 116.02373 16923 ft 380 kts 248°
2026-05-05 13:30 -1.63898 115.99918 16931 ft 380 kts 248°
2026-05-05 13:30 -1.64875 115.97460 16992 ft 382 kts 248°
2026-05-05 13:30 -1.65860 115.94979 17526 ft 384 kts 248°
2026-05-05 13:31 -1.66850 115.92489 18051 ft 387 kts 248°
2026-05-05 13:31 -1.67850 115.89978 18503 ft 390 kts 248°
2026-05-05 13:31 -1.68857 115.87455 18911 ft 393 kts 248°
2026-05-05 13:31 -1.69875 115.84907 19331 ft 396 kts 248°
2026-05-05 13:32 -1.70900 115.82343 19737 ft 399 kts 247°
2026-05-05 13:32 -1.71931 115.79758 20143 ft 402 kts 248°
2026-05-05 13:32 -1.72965 115.77161 20551 ft 404 kts 248°
2026-05-05 13:32 -1.74006 115.74540 20935 ft 407 kts 248°
2026-05-05 13:33 -1.75053 115.71906 21331 ft 409 kts 248°
2026-05-05 13:33 -1.76108 115.69251 21722 ft 412 kts 248°
2026-05-05 13:33 -1.77167 115.66584 22096 ft 414 kts 248°
2026-05-05 13:33 -1.78237 115.63898 22454 ft 417 kts 247°
2026-05-05 13:34 -1.79313 115.61197 22816 ft 420 kts 247°
2026-05-05 13:34 -1.80394 115.58484 23162 ft 423 kts 247°
2026-05-05 13:34 -1.81486 115.55743 23509 ft 425 kts 247°
2026-05-05 13:34 -1.82584 115.52992 23803 ft 428 kts 247°
2026-05-05 13:35 -1.83690 115.50224 24094 ft 430 kts 247°
2026-05-05 13:35 -1.84799 115.47439 24396 ft 432 kts 247°
2026-05-05 13:35 -1.85908 115.44642 24701 ft 434 kts 247°
2026-05-05 13:35 -1.87145 115.41887 24986 ft 435 kts 240°
2026-05-05 13:36 -1.88787 115.39395 25269 ft 435 kts 230°
2026-05-05 13:36 -1.90684 115.37027 25552 ft 437 kts 230°
2026-05-05 13:36 -1.92592 115.34650 25842 ft 439 kts 230°
2026-05-05 13:36 -1.94506 115.32260 26130 ft 441 kts 230°
2026-05-05 13:37 -1.96427 115.29856 26403 ft 444 kts 230°
2026-05-05 13:37 -1.98358 115.27444 26677 ft 446 kts 230°
2026-05-05 13:37 -2.00300 115.25017 26944 ft 447 kts 230°
2026-05-05 13:37 -2.02245 115.22585 27210 ft 449 kts 230°
2026-05-05 13:38 -2.04200 115.20135 27471 ft 451 kts 230°
2026-05-05 13:38 -2.06160 115.17677 27738 ft 453 kts 230°
2026-05-05 13:38 -2.07464 115.16040 27911 ft 455 kts 230°
2026-05-05 13:38 -2.09439 115.13563 28190 ft 456 kts 230°
2026-05-05 13:39 -2.11420 115.11079 28458 ft 458 kts 230°
2026-05-05 13:39 -2.13412 115.08588 28722 ft 460 kts 230°
2026-05-05 13:39 -2.15415 115.06091 28982 ft 461 kts 230°
2026-05-05 13:39 -2.17429 115.03578 29238 ft 463 kts 230°
2026-05-05 13:40 -2.19446 115.01057 29488 ft 465 kts 230°
2026-05-05 13:40 -2.21470 114.98527 29697 ft 468 kts 230°
2026-05-05 13:40 -2.23507 114.95980 29915 ft 470 kts 230°
2026-05-05 13:40 -2.25551 114.93422 30116 ft 471 kts 230°
2026-05-05 13:41 -2.27602 114.90858 30306 ft 473 kts 230°
2026-05-05 13:41 -2.29660 114.88281 30506 ft 474 kts 230°
2026-05-05 13:41 -2.31720 114.85697 30699 ft 476 kts 230°
2026-05-05 13:41 -2.33787 114.83105 30889 ft 477 kts 230°
2026-05-05 13:42 -2.35860 114.80509 31133 ft 477 kts 230°
2026-05-05 13:42 -2.37931 114.77915 31412 ft 477 kts 230°
2026-05-05 13:42 -2.39998 114.75329 31684 ft 476 kts 230°
2026-05-05 13:42 -2.42042 114.72774 31865 ft 476 kts 230°
2026-05-05 13:43 -2.44084 114.70219 31904 ft 464 kts 230°
2026-05-05 13:43 -2.46081 114.67715 31903 ft 458 kts 230°
2026-05-05 13:43 -2.50039 114.62763 31903 ft 454 kts 230°
2026-05-05 13:44 -2.53982 114.57831 31903 ft 454 kts 230°
2026-05-05 13:44 -2.57920 114.52892 31903 ft 454 kts 230°
2026-05-05 13:45 -2.61855 114.47956 31906 ft 454 kts 230°
2026-05-05 13:45 -2.65794 114.43023 31904 ft 454 kts 230°
2026-05-05 13:46 -2.69730 114.38093 31902 ft 454 kts 230°
2026-05-05 13:46 -2.73668 114.33160 31905 ft 453 kts 230°
2026-05-05 13:47 -2.77569 114.28264 31902 ft 453 kts 230°
2026-05-05 13:47 -2.81521 114.23313 31905 ft 452 kts 230°
2026-05-05 13:48 -2.85441 114.18401 31905 ft 452 kts 230°
2026-05-05 13:48 -2.89327 114.13522 31903 ft 451 kts 230°
2026-05-05 13:49 -2.93246 114.08618 31908 ft 451 kts 230°
2026-05-05 13:49 -2.97169 114.03710 31903 ft 451 kts 230°
2026-05-05 13:50 -3.01078 113.98798 31905 ft 451 kts 230°
2026-05-05 13:50 -3.04981 113.93884 31907 ft 451 kts 230°
2026-05-05 13:51 -3.08895 113.88974 31907 ft 451 kts 230°
2026-05-05 13:51 -3.12808 113.84075 31908 ft 450 kts 230°
2026-05-05 13:52 -3.16717 113.79170 31906 ft 450 kts 230°
2026-05-05 13:52 -3.20624 113.74268 31909 ft 450 kts 230°
2026-05-05 13:53 -3.24538 113.69368 31895 ft 451 kts 230°
2026-05-05 13:53 -3.28449 113.64454 31894 ft 451 kts 230°
2026-05-05 13:54 -3.32361 113.59537 31898 ft 452 kts 230°
2026-05-05 13:54 -3.36256 113.54646 31899 ft 452 kts 230°
2026-05-05 13:55 -3.40169 113.49720 31898 ft 452 kts 231°
2026-05-05 13:55 -3.44090 113.44790 31900 ft 452 kts 230°
2026-05-05 13:56 -3.48017 113.39873 31901 ft 453 kts 230°
2026-05-05 13:56 -3.51947 113.34944 31902 ft 453 kts 230°
2026-05-05 13:57 -3.55868 113.30009 31904 ft 452 kts 230°
2026-05-05 13:57 -3.59786 113.25080 31906 ft 452 kts 230°
2026-05-05 13:58 -3.63680 113.20186 31909 ft 452 kts 230°
2026-05-05 13:58 -3.67595 113.15266 31905 ft 452 kts 230°
2026-05-05 13:59 -3.73462 113.07882 31905 ft 452 kts 230°
2026-05-05 14:00 -3.78704 113.01301 31907 ft 452 kts 230°
2026-05-05 14:00 -3.83251 112.95582 31903 ft 452 kts 230°
2026-05-05 14:01 -3.87169 112.90650 31902 ft 452 kts 230°
2026-05-05 14:01 -3.91085 112.85724 31905 ft 452 kts 230°
2026-05-05 14:02 -3.94999 112.80804 31903 ft 452 kts 230°
2026-05-05 14:02 -3.98921 112.75875 31901 ft 452 kts 230°
2026-05-05 14:03 -4.02836 112.70943 31901 ft 452 kts 230°
2026-05-05 14:03 -4.06726 112.66043 31902 ft 452 kts 230°
2026-05-05 14:04 -4.10649 112.61106 31903 ft 452 kts 230°
2026-05-05 14:04 -4.14564 112.56169 31903 ft 452 kts 230°
2026-05-05 14:05 -4.18053 112.50935 31907 ft 454 kts 245°
2026-05-05 14:05 -4.20189 112.44985 31903 ft 454 kts 251°
2026-05-05 14:06 -4.22231 112.38993 31903 ft 454 kts 250°
2026-05-05 14:06 -4.24287 112.33001 31896 ft 455 kts 250°
2026-05-05 14:07 -4.26324 112.27041 31897 ft 455 kts 250°
2026-05-05 14:07 -4.28367 112.21037 31899 ft 455 kts 251°
2026-05-05 14:08 -4.30413 112.15035 31904 ft 455 kts 250°
2026-05-05 14:08 -4.32465 112.09026 31905 ft 456 kts 251°
2026-05-05 14:09 -4.34507 112.03015 31901 ft 456 kts 251°
2026-05-05 14:09 -4.36561 111.97003 31900 ft 456 kts 251°
2026-05-05 14:10 -4.38614 111.90994 31912 ft 456 kts 251°
2026-05-05 14:10 -4.40653 111.84980 31908 ft 456 kts 251°
2026-05-05 14:11 -4.42697 111.78967 31907 ft 456 kts 251°
2026-05-05 14:11 -4.44746 111.72956 31908 ft 456 kts 251°
2026-05-05 14:12 -4.46786 111.66947 31906 ft 456 kts 251°
2026-05-05 14:12 -4.48828 111.60935 31905 ft 456 kts 251°
2026-05-05 14:13 -4.50856 111.54955 31906 ft 456 kts 251°
2026-05-05 14:13 -4.52897 111.48948 31908 ft 456 kts 251°
2026-05-05 14:14 -4.54942 111.42935 31904 ft 456 kts 251°
2026-05-05 14:14 -4.56984 111.36926 31903 ft 456 kts 251°
2026-05-05 14:15 -4.59033 111.30924 31909 ft 455 kts 251°
2026-05-05 14:15 -4.61076 111.24909 31908 ft 455 kts 251°
2026-05-05 14:16 -4.63087 111.18894 31905 ft 455 kts 252°
2026-05-05 14:16 -4.65012 111.12846 31908 ft 455 kts 252°
2026-05-05 14:17 -4.66934 111.06800 31907 ft 455 kts 252°
2026-05-05 14:17 -4.68878 111.00767 31907 ft 455 kts 252°
2026-05-05 14:18 -4.70824 110.94738 31904 ft 454 kts 252°
2026-05-05 14:18 -4.72768 110.88701 31903 ft 454 kts 252°
2026-05-05 14:19 -4.74698 110.82710 31913 ft 454 kts 252°
2026-05-05 14:19 -4.76633 110.76685 31908 ft 454 kts 252°
2026-05-05 14:20 -4.78571 110.70662 31908 ft 454 kts 252°
2026-05-05 14:20 -4.80505 110.64637 31907 ft 454 kts 252°
2026-05-05 14:21 -4.82439 110.58615 31907 ft 453 kts 252°
2026-05-05 14:21 -4.84378 110.52594 31907 ft 453 kts 252°
2026-05-05 14:22 -4.86295 110.46617 31906 ft 453 kts 252°
2026-05-05 14:22 -4.88218 110.40599 31908 ft 453 kts 253°
2026-05-05 14:23 -4.90079 110.34571 31907 ft 453 kts 253°
2026-05-05 14:23 -4.91907 110.28525 31907 ft 452 kts 253°
2026-05-05 14:24 -4.93747 110.22484 31909 ft 452 kts 253°
2026-05-05 14:24 -4.95593 110.16463 31909 ft 452 kts 253°
2026-05-05 14:25 -4.97444 110.10429 31906 ft 452 kts 253°
2026-05-05 14:25 -4.99287 110.04398 31910 ft 452 kts 253°
2026-05-05 14:26 -5.01127 109.98370 31910 ft 452 kts 253°
2026-05-05 14:26 -5.02968 109.92380 31907 ft 452 kts 253°
2026-05-05 14:27 -5.04817 109.86352 31912 ft 452 kts 253°
2026-05-05 14:27 -5.06662 109.80319 31908 ft 452 kts 253°
2026-05-05 14:28 -5.08187 109.75307 31908 ft 452 kts 253°
2026-05-05 14:28 -5.10341 109.68258 31910 ft 452 kts 253°
2026-05-05 14:29 -5.12182 109.62226 31908 ft 452 kts 253°
2026-05-05 14:29 -5.13715 109.57223 31909 ft 452 kts 253°
2026-05-05 14:30 -5.15550 109.51192 31910 ft 452 kts 253°
2026-05-05 14:30 -5.17388 109.45167 31911 ft 452 kts 253°
2026-05-05 14:31 -5.19226 109.39136 31914 ft 451 kts 253°
2026-05-05 14:31 -5.21058 109.33115 31915 ft 451 kts 253°
2026-05-05 14:32 -5.22881 109.27133 31913 ft 451 kts 253°
2026-05-05 14:32 -5.24710 109.21116 31913 ft 451 kts 253°
2026-05-05 14:33 -5.26542 109.15096 31914 ft 451 kts 253°
2026-05-05 14:33 -5.28378 109.09084 31917 ft 451 kts 253°
2026-05-05 14:34 -5.30216 109.03067 31914 ft 451 kts 253°
2026-05-05 14:34 -5.32166 108.97091 31913 ft 451 kts 252°
2026-05-05 14:35 -5.34178 108.91138 31916 ft 451 kts 252°
2026-05-05 14:35 -5.36173 108.85173 31916 ft 451 kts 252°
2026-05-05 14:36 -5.38139 108.79194 31916 ft 450 kts 252°
2026-05-05 14:36 -5.40104 108.73221 31915 ft 450 kts 252°
2026-05-05 14:37 -5.42076 108.67254 31917 ft 450 kts 252°
2026-05-05 14:37 -5.44033 108.61327 31918 ft 450 kts 252°
2026-05-05 14:38 -5.46003 108.55365 31916 ft 450 kts 252°
2026-05-05 14:38 -5.47973 108.49395 31918 ft 450 kts 252°
2026-05-05 14:39 -5.49935 108.43425 31925 ft 450 kts 252°
2026-05-05 14:39 -5.51899 108.37459 31923 ft 450 kts 252°
2026-05-05 14:40 -5.53876 108.31499 31917 ft 450 kts 250°
2026-05-05 14:40 -5.55215 108.28662 31917 ft 450 kts 239°
2026-05-05 14:40 -5.57031 108.26104 31915 ft 450 kts 229°
2026-05-05 14:41 -5.59266 108.23910 31917 ft 450 kts 218°
2026-05-05 14:41 -5.61776 108.22111 31911 ft 450 kts 213°
2026-05-05 14:41 -5.66946 108.18577 31911 ft 450 kts 214°
2026-05-05 14:42 -5.72125 108.15030 31912 ft 450 kts 214°
2026-05-05 14:42 -5.77300 108.11482 31913 ft 451 kts 214°
2026-05-05 14:43 -5.82480 108.07931 31914 ft 451 kts 213°
2026-05-05 14:43 -5.87667 108.04381 31915 ft 451 kts 213°
2026-05-05 14:44 -5.92599 108.00502 31691 ft 453 kts 227°
2026-05-05 14:44 -5.94430 107.97924 30966 ft 455 kts 243°
2026-05-05 14:44 -5.95599 107.94980 30418 ft 453 kts 256°
2026-05-05 14:45 -5.96117 107.91878 29823 ft 450 kts 268°
2026-05-05 14:45 -5.96156 107.88739 29225 ft 447 kts 271°
2026-05-05 14:45 -5.96164 107.85630 28665 ft 444 kts 270°
2026-05-05 14:45 -5.96169 107.82533 28109 ft 441 kts 270°
2026-05-05 14:46 -5.96169 107.79460 27554 ft 438 kts 270°
2026-05-05 14:46 -5.96166 107.76405 27008 ft 436 kts 270°
2026-05-05 14:46 -5.96163 107.73374 26460 ft 433 kts 270°
2026-05-05 14:46 -5.96163 107.70365 25995 ft 428 kts 270°
2026-05-05 14:47 -5.96164 107.67381 25499 ft 425 kts 270°
2026-05-05 14:47 -5.96167 107.64432 25049 ft 421 kts 270°
2026-05-05 14:47 -5.96169 107.61527 24875 ft 409 kts 270°
2026-05-05 14:47 -5.96170 107.58707 24603 ft 400 kts 270°
2026-05-05 14:48 -5.96171 107.55926 24225 ft 396 kts 270°
2026-05-05 14:48 -5.96171 107.53210 23833 ft 393 kts 270°
2026-05-05 14:48 -5.96170 107.50470 23415 ft 390 kts 270°
2026-05-05 14:48 -5.96169 107.47756 22946 ft 388 kts 270°
2026-05-05 14:49 -5.96166 107.45054 22489 ft 385 kts 270°
2026-05-05 14:49 -5.96163 107.42370 22036 ft 383 kts 270°
2026-05-05 14:49 -5.96161 107.39703 21623 ft 380 kts 270°
2026-05-05 14:49 -5.96159 107.37062 21227 ft 377 kts 270°
2026-05-05 14:50 -5.96158 107.34436 20827 ft 374 kts 270°
2026-05-05 14:50 -5.96158 107.31832 20431 ft 371 kts 270°
2026-05-05 14:50 -5.96158 107.29250 20039 ft 369 kts 270°
2026-05-05 14:50 -5.96157 107.26683 19653 ft 366 kts 270°
2026-05-05 14:51 -5.96156 107.24128 19269 ft 364 kts 270°
2026-05-05 14:51 -5.96152 107.21623 18899 ft 362 kts 270°
2026-05-05 14:51 -5.96145 107.19103 18536 ft 360 kts 270°
2026-05-05 14:51 -5.96138 107.16562 18166 ft 358 kts 270°
2026-05-05 14:52 -5.96134 107.14079 17757 ft 356 kts 270°
2026-05-05 14:52 -5.96131 107.11625 17366 ft 353 kts 270°
2026-05-05 14:52 -5.96127 107.09164 16982 ft 351 kts 270°
2026-05-05 14:52 -5.96122 107.06717 16603 ft 349 kts 270°
2026-05-05 14:53 -5.96119 107.04285 16231 ft 348 kts 270°
2026-05-05 14:53 -5.96115 107.01860 15873 ft 346 kts 270°
2026-05-05 14:53 -5.96109 106.99449 15522 ft 344 kts 270°
2026-05-05 14:53 -5.96104 106.97051 15179 ft 342 kts 270°
2026-05-05 14:54 -5.96100 106.94669 14840 ft 341 kts 270°
2026-05-05 14:54 -5.96095 106.92290 14506 ft 339 kts 270°
2026-05-05 14:54 -5.96088 106.89928 14173 ft 337 kts 270°
2026-05-05 14:54 -5.96081 106.87575 13849 ft 336 kts 270°
2026-05-05 14:55 -5.96073 106.85244 13641 ft 330 kts 270°
2026-05-05 14:55 -5.96065 106.82973 13498 ft 321 kts 270°
2026-05-05 14:55 -5.96056 106.80746 13231 ft 317 kts 270°
2026-05-05 14:55 -5.96257 106.78569 12714 ft 312 kts 256°
2026-05-05 14:56 -5.96978 106.76531 12117 ft 309 kts 246°
2026-05-05 14:56 -5.97796 106.74541 11542 ft 307 kts 247°
2026-05-05 14:56 -5.98600 106.72565 10980 ft 304 kts 247°
2026-05-05 14:56 -5.99392 106.70607 10435 ft 302 kts 247°
2026-05-05 14:57 -6.00176 106.68661 9892 ft 299 kts 247°
2026-05-05 14:57 -6.00954 106.66731 9307 ft 296 kts 247°
2026-05-05 14:57 -6.01726 106.64822 8708 ft 294 kts 247°
2026-05-05 14:57 -6.02491 106.62930 8110 ft 291 kts 247°
2026-05-05 14:58 -6.03247 106.61065 7621 ft 285 kts 246°
2026-05-05 14:58 -6.03967 106.59281 7375 ft 269 kts 246°
2026-05-05 14:58 -6.04661 106.57556 6922 ft 265 kts 247°
2026-05-05 14:58 -6.05353 106.55838 6554 ft 264 kts 246°
2026-05-05 14:59 -6.06038 106.54136 6238 ft 262 kts 246°
2026-05-05 14:59 -6.06712 106.52463 5906 ft 261 kts 246°
2026-05-05 14:59 -6.07393 106.50776 5568 ft 260 kts 246°
2026-05-05 14:59 -6.08071 106.49100 5238 ft 258 kts 246°
2026-05-05 15:00 -6.08749 106.47429 4899 ft 258 kts 246°
2026-05-05 15:00 -6.09202 106.46312 4478 ft 265 kts 246°
2026-05-05 15:00 -6.10178 106.43953 3540 ft 281 kts 242°
2026-05-05 15:00 -6.11472 106.42512 3061 ft 277 kts 206°
2026-05-05 15:01 -6.13275 106.42045 2696 ft 266 kts 178°
2026-05-05 15:01 -6.15090 106.42215 2393 ft 258 kts 167°
2026-05-05 15:01 -6.16691 106.42888 2103 ft 246 kts 135°
2026-05-05 15:01 -6.17501 106.44297 2000 ft 228 kts 99°
2026-05-05 15:02 -6.17545 106.45832 2009 ft 217 kts 88°
2026-05-05 15:02 -6.17502 106.47341 2009 ft 216 kts 88°
2026-05-05 15:02 -6.17453 106.48849 2011 ft 216 kts 85°
2026-05-05 15:02 -6.17080 106.50237 2006 ft 201 kts 69°
2026-05-05 15:03 -6.16564 106.51499 2017 ft 184 kts 69°
2026-05-05 15:03 -6.16117 106.52610 2002 ft 161 kts 70°
2026-05-05 15:03 -6.15712 106.53618 1999 ft 152 kts 70°
2026-05-05 15:03 -6.15326 106.54581 2017 ft 144 kts 70°
2026-05-05 15:04 -6.14956 106.55507 1901 ft 142 kts 70°
2026-05-05 15:04 -6.14592 106.56419 1703 ft 139 kts 69°
2026-05-05 15:04 -6.14233 106.57322 1508 ft 139 kts 69°
2026-05-05 15:04 -6.13875 106.58221 1331 ft 140 kts 69°
2026-05-05 15:05 -6.13151 106.60034 973 ft 140 kts 69°
2026-05-05 15:05 -6.12791 106.60942 803 ft 140 kts 70°
2026-05-05 15:05 -6.12429 106.61855 626 ft 141 kts 71°
2026-05-05 15:06 -6.12064 106.62775 428 ft 142 kts 70°
2026-05-05 15:06 -6.11687 106.63702 242 ft 143 kts 69°
2026-05-05 15:06 -6.11315 106.64606 69 ft 137 kts 71°
2026-05-05 15:06 -6.11017 106.65363 34 ft 82 kts 68°
2026-05-05 15:07 -6.10840 106.65807 37 ft 61 kts 69°
2026-05-05 15:07 -6.10697 106.66166 34 ft 45 kts 68°
2026-05-05 15:07 -6.10620 106.66415 33 ft 29 kts 90°
2026-05-05 15:07 -6.10639 106.66571 34 ft 18 kts 99°
2026-05-05 15:08 -6.10696 106.66656 36 ft 16 kts 160°
2026-05-05 15:08 -6.10799 106.66648 36 ft 19 kts 238°
2026-05-05 15:08 -6.10855 106.66498 37 ft 27 kts 251°
2026-05-05 15:08 -6.10934 106.66306 37 ft 31 kts 249°
2026-05-05 15:09 -6.11018 106.66103 37 ft 32 kts 246°
2026-05-05 15:09 -6.11085 106.65922 38 ft 27 kts 248°
2026-05-05 15:09 -6.11157 106.65745 38 ft 28 kts 249°
2026-05-05 15:09 -6.11230 106.65561 37 ft 29 kts 248°
2026-05-05 15:10 -6.11306 106.65373 37 ft 30 kts 248°
2026-05-05 15:10 -6.11382 106.65179 38 ft 28 kts 248°
2026-05-05 15:10 -6.11457 106.64993 37 ft 29 kts 248°
2026-05-05 15:10 -6.11525 106.64823 38 ft 24 kts 248°
2026-05-05 15:11 -6.11622 106.64771 39 ft 18 kts 161°
2026-05-05 15:11 -6.11740 106.64782 41 ft 18 kts 211°
2026-05-05 15:11 -6.11836 106.64688 40 ft 20 kts 218°
2026-05-05 15:11 -6.11957 106.64639 38 ft 14 kts 185°
2026-05-05 15:12 -6.12015 106.64563 35 ft 15 kts 250°
2026-05-05 15:12 -6.12053 106.64467 38 ft 15 kts 248°
2026-05-05 15:12 -6.12132 106.64410 38 ft 16 kts 166°
2026-05-05 15:12 -6.12244 106.64453 37 ft 18 kts 159°
2026-05-05 15:13 -6.12368 106.64502 38 ft 20 kts 158°
2026-05-05 15:13 -6.12500 106.64555 38 ft 22 kts 158°
2026-05-05 15:13 -6.12645 106.64612 38 ft 23 kts 159°
2026-05-05 15:13 -6.12799 106.64675 38 ft 24 kts 158°
2026-05-05 15:14 -6.12940 106.64731 38 ft 21 kts 159°
2026-05-05 15:14 -6.13076 106.64785 38 ft 20 kts 158°
2026-05-05 15:14 -6.13159 106.64829 38 ft 6 kts 128°
2026-05-05 15:14 -6.13147 106.64848 37 ft 3 kts 52°
2026-05-05 15:15 -6.13119 106.64899 38 ft 13 kts 66°
2026-05-05 15:15 -6.13088 106.64980 38 ft 11 kts 79°
2026-05-05 15:15 -6.13125 106.65035 35 ft 10 kts 154°
2026-05-05 15:15 -6.13182 106.65059 35 ft 8 kts 158°
2026-05-05 15:16 -6.13216 106.65073 38 ft 8 kts 158°
2026-05-05 15:16 -6.13265 106.65109 38 ft 5 kts 125°
2026-05-05 15:16 -6.13263 106.65130 38 ft 4 kts 70°
2026-05-05 15:16 -6.13245 106.65147 36 ft 3 kts 34°
2026-05-05 15:17 -6.13229 106.65158 38 ft 2 kts 31°
2026-05-05 15:17 -6.13226 106.65159 38 ft 0 kts 31°